Temp
-4 -4 -5 -4 -4 -5 -5 -6 -6 -8 -7 -6 -6 -7 -7 -7 -7 -7 -7 -7 -7 -7 -8 -8 -7 -7 -7 -7 -7 -7 -6 -6 -7 -6 -6 -5 -6 -6 -6 -7 -7 -7 -7 -7 -7 -7 -7 -6 -6
-4 -4 -5 -5 -4 -5 -5 -5 -7 -7 -6 -5 -6 -5 -6 -6 -6 -7 -7 -7 -6 -7 -7 -7 -7 -7 -7 -7 -7 -7 -6 -6 -6 -7 -7 -6 -6 -6 -7 -7 -7 -7 -7 -7 -7 -6 -6 -6 -6
-4 -4 -5 -5 -4 -5 -5 -5 -6 -7 -6 -7 -6 -5 -6 -6 -6 -6 -6 -6 -6 -6 -7 -7 -8 -8 -8 -7 -7 -7 -7 -6 -6 -7 -7 -7 -6 -6 -7 -7 -7 -7 -7 -7 -7 -6 -6 -6 -6
-4 -5 -4 -4 -4 -5 -5 -6 -5 -6 -6 -7 -6 -5 -6 -5 -6 -6 -6 -6 -6 -6 -6 -6 -7 -7 -7 -7 -7 -6 -6 -6 -6 -6 -7 -7 -7 -7 -7 -7 -7 -7 -7 -7 -6 -6 -6 -5 -5
-4 -4 -5 -4 -5 -4 -5 -6 -6 -6 -5 -6 -5 -6 -5 -5 -5 -6 -6 -5 -5 -6 -6 -6 -6 -6 -6 -6 -6 -6 -6 -6 -6 -6 -6 -6 -6 -6 -7 -7 -7 -7 -7 -6 -6 -5 -5 -5 -6
-4 -4 -4 -4 -5 -4 -5 -6 -4 -5 -5 -5 -5 -5 -5 -4 -5 -5 -5 -5 -5 -5 -5 -5 -6 -6 -6 -6 -6 -6 -6 -6 -6 -6 -6 -5 -6 -6 -6 -7 -7 -6 -6 -6 -5 -5 -5 -5 -5
-4 -5 -4 -4 -6 -4 -5 -6 -5 -5 -5 -5 -5 -5 -4 -4 -4 -5 -5 -5 -5 -5 -5 -5 -5 -6 -6 -6 -6 -6 -6 -6 -6 -6 -6 -6 -6 -6 -6 -6 -6 -6 -5 -5 -5 -5 -5 -6 -5
-5 -4 -5 -5 -5 -5 -4 -5 -5 -5 -5 -4 -4 -5 -5 -4 -4 -4 -4 -4 -5 -4 -5 -5 -5 -5 -5 -5 -5 -6 -6 -6 -6 -6 -5 -5 -5 -5 -6 -6 -6 -5 -5 -5 -5 -5 -5 -6 -6
-4 -4 -4 -5 -5 -3 -4 -5 -5 -5 -5 -4 -4 -5 -5 -4 -4 -4 -4 -4 -4 -4 -4 -4 -5 -5 -5 -5 -5 -6 -6 -6 -6 -6 -6 -6 -6 -6 -6 -6 -5 -5 -5 -5 -5 -5 -5 -5 -6
-4 -4 -4 -4 -4 -4 -4 -4 -5 -5 -4 -4 -4 -4 -4 -4 -4 -4 -4 -4 -4 -4 -4 -4 -4 -4 -5 -5 -5 -5 -5 -5 -5 -6 -6 -6 -6 -6 -6 -5 -5 -5 -5 -4 -5 -5 -6 -6 -6
-4 -4 -5 -4 -4 -5 -3 -4 -5 -5 -4 -4 -4 -4 -4 -4 -4 -4 -5 -4 -4 -4 -4 -4 -4 -5 -5 -4 -5 -5 -5 -5 -5 -6 -6 -6 -6 -6 -5 -5 -5 -5 -5 -5 -5 -6 -6 -6 -6
-5 -5 -4 -5 -4 -3 -4 -3 -5 -5 -5 -5 -4 -4 -4 -4 -4 -4 -4 -4 -5 -4 -5 -4 -4 -5 -5 -5 -5 -5 -5 -5 -6 -6 -6 -6 -6 -5 -5 -5 -5 -4 -5 -5 -5 -6 -6 -7 -7
-6 -4 -4 -4 -3 -4 -4 -4 -4 -4 -5 -5 -4 -4 -4 -4 -4 -4 -4 -4 -4 -4 -5 -4 -5 -5 -5 -5 -5 -5 -5 -5 -6 -6 -6 -5 -5 -5 -5 -5 -5 -5 -5 -5 -5 -6 -5 -6 -7
-4 -4 -4 -3 -4 -4 -4 -4 -3 -4 -4 -5 -5 -4 -4 -4 -4 -4 -4 -5 -5 -4 -4 -4 -5 -5 -5 -6 -5 -6 -5 -6 -5 -5 -5 -5 -5 -5 -5 -5 -5 -5 -5 -5 -6 -6 -6 -6 -7
-5 -5 -5 -4 -4 -5 -4 -4 -4 -4 -4 -5 -5 -5 -4 -4 -4 -4 -4 -5 -4 -4 -5 -4 -4 -5 -5 -5 -5 -5 -5 -5 -5 -4 -5 -5 -5 -4 -5 -5 -5 -5 -5 -6 -6 -5 -6 -6 -6
-4 -5 -5 -4 -5 -4 -4 -4 -4 -4 -5 -5 -5 -5 -4 -4 -4 -4 -4 -4 -4 -3 -4 -4 -4 -4 -4 -5 -5 -5 -5 -5 -5 -4 -4 -5 -5 -5 -5 -5 -5 -5 -5 -6 -5 -5 -6 -6 -6
-5 -5 -5 -4 -5 -5 -4 -5 -5 -5 -4 -5 -5 -5 -4 -4 -4 -4 -4 -4 -4 -4 -4 -4 -4 -4 -4 -5 -5 -5 -5 -5 -4 -4 -4 -4 -5 -5 -5 -5 -5 -5 -5 -5 -5 -5 -6 -6 -6
-6 -5 -5 -6 -5 -5 -4 -5 -5 -5 -4 -4 -4 -5 -5 -4 -4 -4 -4 -4 -4 -4 -4 -4 -4 -4 -4 -4 -4 -5 -5 -5 -4 -4 -4 -5 -5 -5 -5 -5 -6 -5 -5 -5 -5 -5 -6 -6 -6
-7 -6 -5 -6 -5 -5 -5 -5 -5 -5 -4 -3 -4 -4 -4 -5 -4 -4 -4 -4 -4 -4 -4 -4 -4 -4 -4 -4 -4 -5 -5 -4 -5 -4 -4 -5 -5 -5 -5 -5 -5 -5 -5 -5 -6 -5 -6 -6 -6
-7 -6 -6 -7 -6 -6 -5 -5 -4 -4 -4 -5 -4 -4 -4 -4 -5 -4 -5 -4 -4 -4 -4 -4 -4 -4 -4 -5 -5 -5 -5 -5 -4 -5 -5 -5 -5 -5 -5 -5 -5 -5 -5 -5 -5 -5 -5 -6 -6
-7 -7 -7 -6 -7 -6 -7 -5 -4 -5 -5 -6 -5 -4 -3 -4 -4 -5 -5 -4 -4 -4 -4 -4 -5 -5 -4 -4 -5 -5 -4 -5 -5 -5 -5 -5 -5 -5 -5 -5 -5 -5 -5 -5 -5 -5 -5 -6 -6
-5 -7 -7 -7 -6 -6 -7 -6 -5 -4 -5 -6 -6 -5 -4 -3 -4 -4 -5 -4 -4 -4 -4 -4 -4 -4 -4 -5 -4 -5 -4 -5 -5 -5 -5 -5 -5 -5 -5 -5 -5 -5 -5 -5 -5 -5 -5 -5 -6
-5 -8 -8 -8 -7 -5 -7 -6 -6 -5 -5 -6 -6 -6 -4 -4 -4 -4 -4 -5 -4 -4 -4 -4 -4 -4 -4 -4 -4 -4 -5 -5 -5 -5 -5 -5 -5 -5 -6 -6 -5 -5 -5 -5 -4 -4 -5 -5 -6
-6 -6 -7 -8 -7 -5 -7 -7 -5 -5 -4 -5 -5 -6 -4 -4 -5 -4 -4 -4 -4 -4 -4 -4 -4 -4 -4 -5 -5 -5 -5 -5 -5 -5 -5 -5 -6 -5 -5 -5 -5 -5 -5 -5 -4 -4 -4 -5 -5
-7 -7 -8 -8 -7 -4 -6 -7 -5 -6 -6 -5 -5 -6 -6 -4 -5 -5 -4 -4 -4 -4 -4 -4 -4 -4 -4 -4 -5 -5 -5 -5 -5 -5 -5 -6 -5 -5 -5 -4 -5 -5 -4 -4 -4 -4 -4 -5 -5
-8 -8 -8 -9 -7 -6 -7 -6 -4 -7 -7 -6 -5 -6 -6 -5 -5 -5 -5 -4 -4 -4 -4 -4 -4 -4 -4 -4 -4 -4 -5 -5 -5 -5 -5 -5 -5 -5 -5 -4 -4 -4 -4 -4 -4 -4 -5 -5 -5
-9 -9 -8 -9 -8 -7 -8 -7 -6 -7 -7 -7 -5 -5 -6 -5 -4 -4 -5 -4 -4 -4 -4 -4 -4 -5 -4 -5 -4 -4 -4 -5 -4 -5 -5 -5 -5 -5 -4 -4 -4 -4 -4 -4 -4 -4 -5 -5 -5
-9 -10 -10 -11 -9 -8 -6 -7 -6 -6 -6 -7 -6 -6 -7 -6 -5 -4 -4 -4 -4 -4 -5 -4 -4 -4 -4 -4 -4 -4 -4 -5 -5 -4 -5 -5 -5 -5 -4 -5 -4 -4 -4 -4 -4 -4 -4 -5 -5
-11 -10 -11 -10 -11 -10 -8 -7 -6 -7 -7 -7 -7 -7 -6 -6 -5 -6 -4 -4 -4 -4 -5 -4 -4 -5 -5 -5 -4 -4 -4 -4 -5 -5 -4 -4 -5 -5 -4 -4 -4 -5 -4 -4 -4 -4 -4 -5 -5
-12 -12 -11 -12 -10 -11 -10 -6 -7 -7 -7 -7 -7 -5 -7 -7 -6 -6 -6 -5 -4 -4 -5 -5 -4 -4 -5 -5 -5 -5 -5 -4 -4 -4 -4 -4 -5 -5 -5 -5 -4 -4 -4 -4 -4 -4 -4 -5 -5
Height
5903 5901 5901 5903 5903 5899 5898 5899 5900 5895 5889 5891 5890 5888 5890 5890 5889 5890 5890 5889 5889 5887 5889 5890 5892 5893 5894 5896 5896 5899 5902 5903 5903 5903 5903 5904 5906 5906 5906 5907 5911 5912 5913 5913 5916 5917 5918 5919 5919
5906 5905 5905 5904 5906 5900 5902 5902 5901 5899 5895 5892 5893 5893 5892 5892 5893 5889 5892 5892 5891 5891 5892 5893 5894 5896 5897 5899 5900 5901 5904 5906 5907 5906 5906 5907 5909 5910 5912 5914 5915 5916 5918 5919 5920 5920 5921 5922 5922
5908 5907 5905 5904 5905 5902 5902 5904 5904 5901 5898 5893 5894 5895 5894 5892 5893 5892 5893 5893 5894 5894 5894 5896 5897 5899 5901 5903 5904 5904 5906 5908 5910 5909 5909 5908 5912 5913 5915 5918 5919 5919 5921 5922 5922 5922 5923 5923 5923
5908 5910 5909 5908 5909 5906 5906 5906 5905 5903 5900 5897 5896 5896 5897 5897 5894 5895 5896 5896 5896 5895 5897 5899 5901 5902 5904 5906 5907 5907 5909 5910 5912 5913 5911 5914 5916 5918 5919 5921 5923 5923 5924 5926 5925 5925 5926 5926 5927
5910 5909 5910 5910 5909 5907 5908 5907 5906 5904 5903 5902 5900 5900 5901 5899 5897 5899 5900 5899 5897 5898 5900 5902 5904 5906 5907 5909 5910 5911 5911 5912 5914 5916 5917 5918 5919 5921 5923 5924 5925 5926 5927 5928 5929 5930 5931 5931 5930
5912 5910 5914 5911 5909 5910 5911 5912 5910 5907 5906 5904 5902 5902 5904 5901 5899 5900 5901 5901 5900 5900 5903 5905 5907 5908 5910 5911 5912 5914 5914 5916 5917 5918 5920 5921 5922 5923 5924 5926 5928 5930 5931 5932 5932 5933 5934 5935 5934
5910 5909 5913 5912 5911 5912 5913 5914 5909 5908 5906 5907 5905 5901 5904 5903 5901 5902 5902 5902 5903 5904 5905 5907 5909 5910 5911 5913 5914 5916 5917 5918 5920 5922 5923 5924 5925 5926 5927 5929 5931 5933 5934 5935 5935 5936 5938 5939 5938
5910 5914 5913 5913 5912 5915 5917 5918 5912 5909 5910 5910 5910 5907 5906 5905 5903 5903 5904 5904 5905 5907 5908 5909 5911 5912 5914 5915 5917 5918 5919 5921 5923 5925 5926 5927 5928 5929 5931 5933 5934 5935 5937 5938 5940 5940 5941 5943 5943
5912 5905 5913 5912 5913 5914 5916 5919 5918 5913 5913 5913 5912 5911 5911 5909 5907 5906 5907 5908 5908 5909 5910 5911 5913 5915 5917 5918 5920 5921 5922 5922 5924 5926 5929 5930 5931 5934 5935 5937 5939 5940 5942 5944 5943 5943 5944 5945 5944
5915 5911 5914 5916 5914 5915 5913 5917 5918 5916 5916 5916 5914 5914 5913 5913 5912 5911 5910 5910 5910 5910 5911 5913 5915 5917 5919 5921 5923 5924 5924 5925 5927 5929 5931 5933 5934 5938 5940 5942 5942 5944 5946 5946 5947 5947 5947 5947 5946
5917 5915 5916 5915 5918 5917 5917 5918 5919 5920 5918 5917 5917 5917 5916 5915 5915 5913 5913 5913 5912 5913 5914 5917 5917 5919 5921 5922 5924 5926 5928 5929 5930 5932 5933 5936 5940 5943 5945 5946 5946 5948 5949 5951 5950 5951 5950 5950 5950
5917 5916 5916 5915 5918 5918 5917 5917 5921 5918 5917 5918 5918 5920 5919 5919 5919 5917 5918 5916 5914 5915 5918 5918 5918 5919 5921 5924 5926 5928 5931 5932 5933 5934 5936 5938 5944 5947 5949 5951 5951 5951 5952 5953 5953 5953 5954 5953 5955
5917 5916 5912 5910 5910 5918 5918 5921 5921 5922 5920 5920 5919 5920 5921 5922 5923 5923 5921 5920 5919 5920 5920 5921 5921 5923 5923 5926 5929 5931 5934 5935 5937 5938 5939 5942 5946 5950 5952 5954 5955 5955 5956 5955 5956 5956 5957 5957 5960
5915 5918 5917 5912 5915 5917 5919 5923 5923 5922 5920 5920 5920 5920 5923 5923 5924 5924 5925 5924 5926 5925 5925 5924 5924 5925 5928 5929 5930 5934 5937 5940 5940 5941 5944 5947 5950 5953 5955 5957 5958 5959 5959 5959 5960 5959 5960 5961 5963
5915 5916 5915 5917 5915 5904 5917 5921 5924 5921 5921 5921 5921 5921 5924 5925 5926 5927 5927 5929 5928 5930 5929 5929 5928 5929 5930 5932 5934 5936 5941 5942 5943 5945 5948 5950 5954 5957 5958 5960 5961 5962 5962 5961 5963 5963 5964 5965 5966
5917 5916 5916 5913 5914 5915 5919 5921 5922 5921 5921 5921 5922 5922 5924 5927 5927 5929 5929 5929 5929 5930 5933 5934 5933 5932 5933 5935 5938 5939 5943 5945 5946 5949 5950 5954 5957 5959 5961 5962 5963 5963 5963 5965 5968 5967 5968 5969 5970
5915 5915 5914 5916 5915 5918 5920 5918 5920 5920 5921 5921 5922 5924 5924 5926 5929 5929 5930 5930 5932 5933 5933 5935 5937 5938 5936 5938 5940 5943 5946 5947 5950 5952 5954 5957 5960 5961 5962 5963 5964 5965 5966 5967 5968 5969 5971 5972 5972
5909 5910 5910 5910 5913 5916 5920 5919 5919 5920 5920 5920 5923 5925 5925 5926 5928 5930 5931 5932 5933 5935 5936 5936 5938 5939 5940 5941 5943 5946 5949 5951 5953 5955 5957 5958 5960 5963 5964 5965 5966 5966 5967 5968 5970 5971 5973 5974 5975
5904 5905 5907 5908 5911 5915 5917 5918 5916 5918 5918 5919 5922 5924 5926 5925 5927 5929 5931 5932 5934 5935 5937 5938 5939 5941 5942 5944 5945 5949 5951 5954 5956 5958 5959 5960 5962 5964 5965 5966 5966 5967 5968 5969 5970 5973 5974 5975 5976
5901 5900 5903 5903 5908 5909 5911 5914 5915 5915 5915 5918 5920 5923 5925 5925 5926 5928 5930 5931 5933 5935 5937 5939 5941 5941 5944 5946 5947 5949 5952 5955 5957 5959 5961 5962 5964 5965 5966 5966 5967 5968 5969 5969 5971 5973 5975 5976 5977
5896 5899 5901 5902 5903 5906 5906 5906 5911 5913 5912 5915 5918 5919 5922 5923 5923 5927 5928 5930 5932 5933 5935 5938 5940 5942 5944 5947 5949 5951 5953 5955 5957 5959 5961 5962 5963 5965 5966 5967 5968 5969 5968 5969 5971 5974 5975 5977 5977
5889 5893 5896 5896 5897 5899 5899 5901 5903 5908 5910 5912 5914 5915 5917 5920 5920 5923 5926 5927 5930 5932 5933 5935 5938 5941 5943 5946 5949 5950 5951 5954 5956 5959 5960 5961 5963 5964 5964 5966 5967 5968 5968 5969 5970 5973 5975 5977 5977
5886 5885 5885 5885 5888 5893 5895 5893 5901 5899 5903 5909 5910 5911 5913 5918 5918 5920 5924 5925 5926 5930 5932 5933 5935 5939 5941 5944 5946 5949 5952 5954 5955 5956 5957 5958 5960 5961 5962 5963 5964 5966 5967 5968 5969 5972 5974 5976 5977
5879 5878 5878 5878 5879 5882 5891 5887 5892 5892 5902 5905 5907 5908 5911 5915 5917 5919 5921 5923 5925 5927 5930 5932 5933 5936 5938 5941 5944 5947 5950 5952 5953 5954 5954 5956 5957 5957 5958 5959 5960 5962 5965 5967 5968 5970 5972 5973 5974
5871 5873 5872 5872 5872 5878 5883 5880 5886 5889 5897 5900 5903 5905 5908 5911 5912 5915 5919 5921 5922 5925 5927 5928 5931 5934 5936 5938 5940 5943 5946 5948 5949 5951 5953 5954 5955 5955 5955 5957 5959 5960 5962 5965 5968 5970 5971 5972 5972
5857 5862 5863 5862 5866 5869 5872 5871 5884 5888 5890 5894 5897 5900 5902 5907 5910 5911 5914 5917 5918 5921 5923 5925 5927 5930 5933 5935 5937 5939 5942 5945 5947 5948 5950 5952 5952 5953 5954 5955 5957 5958 5960 5962 5964 5966 5967 5968 5969
5854 5848 5859 5853 5859 5858 5860 5869 5878 5878 5880 5885 5888 5892 5896 5900 5906 5907 5909 5911 5914 5917 5919 5922 5923 5925 5929 5931 5933 5936 5939 5941 5943 5945 5946 5948 5950 5951 5951 5953 5954 5955 5956 5958 5959 5961 5962 5963 5964
5838 5848 5845 5846 5848 5849 5854 5860 5868 5872 5873 5878 5882 5885 5890 5892 5899 5903 5904 5906 5909 5912 5914 5917 5919 5921 5923 5926 5930 5932 5934 5936 5938 5941 5944 5945 5947 5947 5949 5950 5951 5953 5954 5955 5957 5957 5957 5958 5959
5830 5839 5835 5835 5837 5839 5843 5852 5864 5866 5867 5868 5873 5879 5885 5887 5891 5895 5896 5899 5904 5906 5907 5911 5913 5915 5919 5921 5924 5927 5930 5932 5935 5937 5938 5941 5943 5942 5943 5946 5948 5949 5950 5952 5953 5953 5953 5954 5954
5820 5825 5822 5821 5828 5828 5832 5841 5854 5855 5860 5862 5867 5865 5874 5881 5882 5885 5889 5890 5896 5900 5902 5904 5907 5910 5914 5916 5917 5920 5924 5927 5929 5931 5933 5935 5939 5939 5939 5940 5941 5944 5945 5946 5947 5948 5949 5949 5950
Wind_Speed
12 18 10 12 21 16 20 20 22 15 16 20 18 17 15 15 16 18 15 15 13 17 15 16 16 17 15 14 13 13 14 14 12 9 11 17 18 26 31 29 30 28 25 25 22 23 21 22 23
14 14 9 7 15 17 15 20 14 13 14 19 18 15 16 15 14 16 14 13 15 17 16 16 15 18 18 16 14 14 13 14 15 17 19 23 27 27 28 29 27 25 23 24 21 22 23 24 26
11 12 12 12 12 19 15 21 19 14 14 17 14 15 15 14 13 16 13 13 15 17 18 18 20 21 20 21 16 15 14 13 15 19 26 29 29 29 25 23 23 23 19 19 24 24 27 27 26
10 12 16 11 9 20 16 14 18 18 18 14 13 15 12 11 16 15 13 15 17 19 19 19 20 21 20 18 17 15 14 13 15 16 22 25 25 26 26 24 21 20 19 23 29 30 29 28 27
9 11 10 13 13 18 16 19 19 18 20 15 14 12 12 10 16 16 16 17 20 20 17 19 22 21 19 18 16 16 16 15 15 17 19 21 22 22 22 22 20 19 23 30 31 30 28 26 25
22 18 14 12 15 17 17 14 16 18 20 19 17 16 12 11 16 14 14 16 18 21 18 16 18 19 18 18 17 17 17 17 19 19 19 19 20 21 22 21 20 21 28 31 30 28 24 22 22
14 11 11 13 10 18 16 17 18 18 20 19 17 19 16 11 16 14 12 14 15 17 18 16 16 16 16 17 17 18 20 21 21 21 21 20 20 20 20 20 20 25 30 28 27 23 22 20 19
7 9 9 8 5 11 17 18 17 20 19 18 18 17 17 13 13 14 11 12 13 14 15 15 14 14 16 17 17 19 22 23 22 20 19 18 18 18 19 20 23 28 28 26 23 18 20 20 18
8 9 4 10 14 15 15 18 15 17 16 17 17 18 18 17 13 11 10 12 12 12 13 13 14 16 15 15 17 21 23 25 22 20 18 17 16 18 19 21 27 27 24 23 19 17 18 19 20
5 11 10 13 8 10 12 15 15 16 16 15 18 15 18 19 16 13 10 12 14 15 15 14 15 16 16 16 17 21 23 24 22 20 16 16 16 18 20 27 27 25 22 19 18 17 18 20 21
5 10 12 16 13 14 9 16 10 11 15 16 17 14 15 18 17 18 14 15 13 13 13 14 15 14 15 17 16 19 21 23 21 18 16 16 18 19 24 26 24 22 19 18 18 19 20 21 23
5 4 4 14 9 9 14 12 9 10 12 13 13 13 12 15 16 16 16 15 16 17 16 17 18 17 16 17 18 18 20 22 21 19 19 23 23 25 24 22 20 18 18 18 17 21 19 25 23
3 3 5 8 19 7 12 10 9 7 9 8 10 11 11 12 13 14 15 15 16 17 20 20 19 18 18 18 20 17 20 21 19 23 26 29 29 25 23 20 17 16 16 16 16 20 18 24 21
3 7 5 2 6 6 6 6 8 5 4 4 6 8 7 10 10 13 11 15 12 15 23 22 23 22 18 17 18 20 19 19 21 26 29 29 27 25 22 17 16 13 13 16 16 19 18 22 22
9 4 6 9 8 16 6 4 6 3 6 4 3 6 5 5 8 9 7 11 13 18 17 16 21 21 18 22 24 20 18 19 25 27 29 28 25 21 19 15 14 11 13 15 13 17 17 18 18
12 11 10 6 13 6 1 1 3 6 8 10 3 4 4 7 6 8 6 7 11 14 15 18 18 21 22 25 21 22 19 19 25 26 27 25 22 19 15 15 12 12 14 14 12 16 16 15 12
11 7 10 11 9 3 6 3 2 2 3 8 6 5 5 6 8 6 8 7 7 11 11 12 14 18 22 21 21 19 19 23 24 25 25 22 19 16 14 13 11 11 11 14 14 16 14 12 10
18 25 16 9 7 7 9 4 1 4 6 1 4 0 2 4 8 8 7 9 7 9 10 9 8 10 15 19 20 20 21 23 22 23 22 21 17 13 10 11 8 9 9 12 12 15 14 10 9
21 25 21 16 13 6 3 8 6 9 10 7 5 4 6 5 7 10 9 7 9 9 8 9 10 8 9 15 18 19 19 18 20 20 19 17 15 12 9 8 7 5 5 11 12 10 12 10 10
27 26 21 21 11 12 18 12 6 6 10 8 11 11 8 6 6 9 13 12 10 9 10 10 8 10 9 10 15 15 16 16 15 13 13 13 11 9 6 4 4 1 2 9 12 11 11 8 8
33 31 21 16 16 10 13 16 8 8 4 6 12 15 15 11 9 9 12 14 13 11 10 11 11 12 13 13 14 16 17 16 14 13 10 8 7 6 5 4 4 4 3 6 12 12 10 10 9
34 33 30 24 24 19 20 13 15 9 13 11 7 13 17 15 12 13 12 14 15 15 12 12 13 12 16 15 14 15 16 14 13 12 10 8 7 8 9 10 10 8 7 7 12 14 10 10 10
33 39 36 36 33 28 23 26 12 17 13 15 11 12 16 16 12 14 15 15 18 17 17 15 15 15 16 16 16 14 13 11 10 10 11 9 10 9 11 11 13 11 11 11 11 13 12 10 9
36 39 42 41 40 39 23 23 19 23 11 20 13 11 14 16 12 12 17 17 15 17 19 18 16 16 17 17 17 17 16 13 11 12 11 10 9 8 9 9 11 12 12 12 12 12 13 11 10
39 40 40 44 42 46 30 30 21 24 16 16 16 7 11 13 16 13 13 15 18 16 19 21 20 18 18 18 19 18 16 14 13 11 9 8 9 8 8 8 11 12 13 12 10 10 11 11 12
43 42 46 47 48 46 40 35 16 16 19 17 20 12 13 10 9 16 19 20 21 23 19 22 22 22 21 20 20 19 19 16 17 16 10 8 6 10 12 11 12 12 11 12 12 12 12 12 13
44 48 44 52 51 54 48 39 31 27 30 26 26 18 13 13 14 20 20 24 22 24 24 20 22 24 24 26 23 20 19 18 17 15 13 10 8 11 13 14 14 14 15 15 15 15 15 16 16
52 49 50 45 51 55 54 40 42 33 31 30 23 23 21 24 20 22 21 24 23 24 26 25 23 20 23 26 25 25 24 23 21 19 18 16 14 13 15 16 16 16 16 17 17 18 19 18 17
48 48 53 52 47 47 58 49 33 33 31 35 25 27 24 29 23 13 21 25 25 29 29 28 26 25 21 20 24 25 26 26 24 23 22 20 18 17 18 17 20 19 21 20 22 22 22 23 21
41 47 60 53 56 50 49 54 42 41 38 37 36 41 28 23 24 20 23 27 27 26 31 32 31 29 26 24 23 22 24 25 25 26 26 25 23 23 23 20 21 23 24 24 25 24 23 25 26
Wind_Direction
110 111 75 75 46 59 44 37 46 46 27 56 70 76 95 100 97 93 96 103 109 107 112 112 113 121 125 128 128 123 122 123 110 102 122 127 112 107 111 106 108 115 112 108 106 109 106 106 98
107 109 99 88 64 69 55 54 49 50 40 63 76 85 90 94 97 92 98 101 107 107 112 116 114 123 124 129 133 133 122 117 111 111 115 120 111 108 102 113 116 118 122 116 116 113 113 106 91
102 88 80 113 53 65 43 43 57 58 45 62 72 67 70 87 78 86 90 100 105 105 110 115 113 122 125 127 128 123 121 113 112 112 99 129 108 111 110 116 121 123 121 114 106 106 101 94 89
130 127 82 103 47 53 50 36 47 67 56 66 82 81 85 80 88 86 96 108 111 110 113 115 118 121 123 123 122 120 120 118 119 121 98 105 114 119 125 132 131 127 117 106 102 100 97 93 92
185 164 142 88 72 49 62 46 40 56 61 70 84 86 83 91 91 92 99 103 108 109 114 121 122 124 122 126 124 125 123 120 120 129 126 128 126 128 134 138 133 119 106 103 101 98 96 93 90
152 129 126 79 70 56 63 64 54 57 59 66 84 80 78 90 95 89 96 102 107 113 117 123 126 127 128 128 126 126 127 124 121 123 125 125 133 141 144 137 122 109 104 103 97 92 85 80 75
144 68 100 78 63 59 57 58 50 59 57 58 79 81 63 80 96 98 101 102 107 116 125 130 131 132 134 130 127 127 129 127 125 127 128 130 135 140 141 130 116 109 106 100 92 88 86 78 65
126 114 120 108 114 55 68 60 51 53 59 60 73 82 77 62 93 100 106 110 110 116 121 125 129 133 135 133 132 131 132 126 125 128 129 127 133 139 132 122 112 110 104 98 92 88 82 80 76
327 167 134 179 86 91 56 61 50 52 58 65 69 77 73 60 68 94 112 117 119 120 122 128 130 133 133 132 132 136 137 135 134 138 139 139 141 135 125 116 114 110 107 99 94 86 81 79 82
288 322 111 127 86 80 51 50 46 51 53 66 75 64 66 67 62 79 109 113 111 115 117 119 129 132 130 132 133 139 141 146 140 142 141 147 140 128 126 121 114 113 106 102 99 90 87 89 89
334 34 29 137 91 81 74 62 53 53 52 57 72 73 60 64 55 64 84 105 112 111 108 108 115 128 135 138 143 144 145 148 146 142 143 143 136 129 124 118 114 110 108 97 96 91 98 93 95
159 338 39 121 126 73 54 48 56 30 52 48 65 76 69 62 64 64 74 94 99 95 96 120 113 116 131 138 144 140 144 146 145 137 127 131 130 123 120 117 117 115 106 98 96 101 101 96 100
171 221 49 146 126 26 61 36 47 0 42 42 54 75 74 72 75 74 72 77 83 97 102 111 107 121 120 132 129 139 144 143 134 129 126 128 129 126 122 121 116 104 98 95 98 102 97 104 108
168 208 169 122 102 113 78 76 45 353 341 45 55 72 83 89 81 84 76 90 96 87 99 109 99 120 134 127 135 141 147 133 128 129 130 128 129 131 127 117 104 100 104 97 109 101 101 111 109
173 202 224 178 156 144 113 35 19 12 26 20 88 62 98 91 106 94 88 100 99 103 100 110 102 106 113 132 139 138 142 135 132 132 133 131 133 126 116 106 98 94 94 94 113 107 118 120 113
199 188 171 208 117 107 228 290 108 57 44 37 127 158 125 145 137 116 123 103 104 108 110 115 109 110 114 132 134 138 144 142 141 137 137 136 136 126 115 105 95 84 86 102 120 106 120 116 100
200 197 197 223 177 143 289 278 58 19 12 42 57 146 149 164 166 154 125 130 126 120 105 111 113 115 117 129 135 138 142 143 146 146 143 143 140 133 121 109 95 82 95 120 125 116 126 127 105
227 221 210 238 277 286 274 222 287 243 271 325 14 235 198 179 170 183 159 142 148 131 122 123 115 109 116 124 131 139 145 145 149 153 155 150 147 138 127 119 113 91 87 122 137 130 135 142 110
233 229 216 233 222 234 217 218 219 286 233 246 277 287 254 215 188 191 200 175 171 165 147 129 135 130 130 135 136 142 144 146 156 161 165 161 157 155 156 146 109 76 96 142 146 148 155 147 122
226 240 227 219 226 279 252 247 223 241 223 223 262 274 258 241 208 196 215 226 201 186 171 170 159 144 151 156 153 153 154 156 160 167 176 170 170 181 180 160 127 137 160 151 163 165 167 171 139
221 230 227 232 232 203 252 250 213 187 186 191 241 254 253 240 220 209 208 215 208 199 192 176 183 182 161 169 164 159 162 156 160 166 182 187 192 213 232 242 246 254 248 182 179 185 179 177 172
226 223 227 236 232 230 233 228 222 209 174 196 238 257 230 230 230 211 214 211 209 206 203 197 182 187 188 177 176 183 175 174 182 180 194 218 233 241 247 252 253 249 243 212 199 193 194 200 197
237 220 223 231 230 222 202 229 209 236 188 184 227 258 229 218 230 213 211 218 214 211 212 206 198 191 193 187 188 188 183 192 209 217 210 212 229 238 245 244 240 231 230 216 204 210 207 208 224
235 231 226 226 225 220 200 236 220 244 226 194 220 260 241 205 224 226 223 228 229 218 217 216 211 203 201 197 196 199 201 209 216 222 224 220 233 224 230 223 220 212 211 214 210 211 217 222 224
238 233 218 218 224 220 218 235 236 238 237 204 210 220 266 201 216 233 239 247 240 225 219 219 219 215 211 210 204 205 211 214 223 223 233 237 235 230 216 190 197 201 194 206 217 229 234 236 235
228 230 217 217 222 231 232 233 215 227 233 233 226 234 237 256 226 236 239 238 238 224 221 222 218 221 221 219 218 210 210 209 216 222 214 228 241 238 206 197 186 191 197 205 215 225 237 247 252
222 225 222 223 219 227 231 225 198 213 219 229 228 237 262 263 242 251 233 235 233 218 221 223 225 225 227 225 222 224 220 219 224 233 230 223 231 244 225 202 199 198 203 208 216 221 229 239 245
230 222 217 221 226 224 229 221 223 216 225 226 234 242 254 256 257 245 252 232 219 213 220 225 230 227 230 238 234 233 233 229 225 229 233 233 226 234 237 231 220 215 219 217 219 224 230 235 240
230 219 221 219 225 230 228 220 223 205 219 230 217 246 246 252 257 255 230 228 214 216 221 224 232 231 230 235 242 238 241 242 236 232 234 231 233 232 240 240 235 230 233 236 238 235 238 239 242
219 220 222 225 216 225 229 217 206 212 210 219 222 217 211 243 253 253 220 221 220 221 221 227 230 234 232 231 235 238 240 241 243 243 238 237 233 236 235 230 237 239 242 243 244 245 246 248 249